Powrót do katalogu

ARIANE 44L+ DEB

LostGTO
NORAD 23240·DEBRIS·🇫🇷 France

Wystrzelony Apr 15, 1992 z Guiana Space Centre

Loading…

TLE

NieaktualneSource: Space-Track

Epoka: Mar 31, 2026, 12:20 UTC

1 23240U 92021K   26090.51389738 -.00000163  00000-0  00000-0 0  9997
2 23240   3.2670 147.7587 6977190 200.4861 338.6119  2.23454445262071

Śledź ARIANE 44L+ DEB w czasie rzeczywistym z AllMySat

Download on the App Store